Location: Roswell
(33.3943°N, 104.5230°W)
Time: 14:47:52
(UTC+00:00)

Vanguard 2 Rocket - Pass Details

Date: 21 November 2024
Orbit: 554 x 3296 km, 32.9° (Epoch: 30 November)

Event Time Altitude Azimuth Distance (km) Brightness Sun altitude
Exits shadow 11:39:36 21° 231° (SW) 2,925 9.1 -24.0°
Maximum altitude 11:46:47 66° 155° (SSE) 2,178 8.8 -22.5°
Drops below altitude 10° 12:03:00 10° 78° (ENE) 5,779 12.0 -19.2°
Sets 12:08:11 0° 77° (ENE) 7,050 12.6 -18.1°
